SB KEPS @ AMSAT $ORB10035.N 2Line Orbital Elements 10035.AMSAT
HR AMSAT ORBITAL ELEMENTS FOR AMATEUR SATELLITES IN NASA FORMAT FROM WA5QGD FORT WORTH,TX February 4, 2010 Send Subscribe/unsubscribe to KEPS at http://www.amsat.org/mailman/listinfo/keps BID: ORB10035.N
DECODE 2-LINE ELSETS WITH THE FOLLOWING KEY: 1 AAAAAU 00 0 0 BBBBB.BBBBBBBB .CCCCCCCC 00000-0 00000-0 0 DDDZ 2 AAAAA EEE.EEEE FFF.FFFF GGGGGGG HHH.HHHH III.IIII JJ.JJJJJJJJKKKKKZ KEY: A-CATALOGNUM B-EPOCHTIME C-DECAY D-ELSETNUM E-INCLINATION F-RAAN G-ECCENTRICITY H-ARGPERIGEE I-MNANOM J-MNMOTION K-ORBITNUM Z-CHECKSUM
TO ALL RADIO AMATEURS BT
AO-07 1 07530U 74089B 10035.48484518 -.00000027 00000-0 10000-3 0 6962 2 07530 101.4106 056.4629 0011970 173.6850 186.4378 12.53577696611826 FO-29 1 24278U 96046B 10034.62183458 .00000007 00000-0 39801-4 0 2370 2 24278 098.5234 242.1624 0351441 110.3355 253.5906 13.52947547665041 SO-33 1 25509U 98061B 10034.69071766 .00000088 00000-0 32067-5 0 06441 2 25509 031.4317 183.4301 0354462 202.7024 155.7566 14.28285384588958 RS-22 1 27939U 03042A 10034.92958200 .00000107 00000-0 29376-4 0 15 2 27939 097.9112 265.9134 0014786 119.4089 240.8779 14.63378223339460 VO-52 1 28650U 05017B 10035.30073699 -.00000172 00000-0 -15193-4 0 4260 2 28650 097.7112 093.8037 0026925 353.8835 006.2047 14.81674816257019 SO-67 1 35870U 09049F 10035.94938657 .00000491 00000-0 23879-4 0 4166 2 35870 097.3515 088.2449 0011708 154.2742 205.7498 15.22860492 21335 HO-68 1 36122U 09072B 10035.23386919 -.00000045 00000-0 00000 0 0 1252 2 36122 100.4889 096.9180 0007285 280.4438 079.5841 13.16279712 6728 UO-11 1 14781U 84021B 10034.61151884 -.00000036 00000-0 23879-5 0 01679 2 14781 098.0750 085.8208 0008373 315.5224 044.5314 14.79764546392059 AO-16 1 20439U 90005D 10035.55729522 -.00000015 00000-0 97409-5 0 8145 2 20439 098.3144 358.8083 0010531 196.0332 164.0514 14.31846659 46400 LO-19 1 20442U 90005G 10035.78602208 .00000038 00000-0 29421-4 0 7258 2 20442 098.2768 005.3667 0011659 191.0796 169.0139 14.32080196 46605 AO-27 1 22825U 93061C 10034.79412730 .00000057 00000-0 39166-4 0 04502 2 22825 098.4708 346.3064 0007691 306.0975 053.9484 14.29285337852996 IO-26 1 22826U 93061D 10034.81338049 -.00000024 00000-0 73161-5 0 01850 2 22826 098.4631 346.9783 0008176 301.0325 059.0057 14.29539049853108 GO-32 1 25397U 98043D 10035.50456971 -.00000011 00000-0 12922-4 0 1047 2 25397 098.3167 050.2444 0000481 342.4974 017.6207 14.23170655601179 NO-44 1 26931U 01043C 10034.78858652 -.00000004 00000-0 30793-4 0 03788 2 26931 067.0508 187.6618 0006714 265.7855 094.2492 14.29581107435686 SO-50 1 27607U 02058C 10034.46624411 -.00000001 00000-0 21562-4 0 00952 2 27607 064.5576 042.6639 0040295 138.0348 222.3840 14.71494941382709 CO-55 1 27844U 03031E 10034.91640941 .00000062 00000-0 49038-4 0 07729 2 27844 098.7108 045.7918 0009375 192.6548 167.4405 14.20682073342169 CO-57 1 27848U 03031J 10034.71536247 .00000014 00000-0 26847-4 0 07241 2 27848 098.7170 044.6690 0009381 195.3808 164.7078 14.20477666342091 AO-51 1 28375U 04025K 10034.93920707 .00000013 00000-0 16324-4 0 05968 2 28375 098.0552 036.0669 0083967 141.0297 219.6987 14.40667598294325 CO-56 1 28941U 06005C 09297.68475575 .14491492 29743-5 25760-3 0 5565 2 28941 098.0955 138.9518 0011688 319.8691 040.7485 16.46998778207909 GENESAT1 1 29655U 06058C 10034.70536516 .00029560 00000-0 20764-3 0 09339 2 29655 040.0190 165.9000 0004066 059.1363 300.9856 15.73399362178844 CP3 1 31129U 07012N 10034.82481361 .00000097 00000-0 33455-4 0 4970 2 31129 097.9615 081.4225 0100874 287.6585 071.3605 14.52205420148503 CO-65 1 32785U 08021C 10034.17576994 -.00000028 00000-0 32050-5 0 05961 2 32785 097.9135 100.8559 0015103 005.2078 354.9293 14.81576306095641 KKS-1 1 33493U 09002B 10035.75723163 .00000367 00000-0 54548-4 0 1804 2 33493 098.0709 154.2598 0019410 206.6806 153.3426 14.80838060 55882 SOHLA-1 1 33496U 09002E 10034.83667588 .00000161 00000-0 35343-4 0 165 2 33496 098.0469 145.7363 0005519 266.5160 093.5409 14.69467166 55299 NOAA-10 1 16969U 86073A 10034.82911098 -.00000014 00000-0 12509-4 0 09437 2 16969 098.6722 064.9585 0011540 238.8128 121.1916 14.27405317216551 NOAA-11 1 19531U 88089A 10034.87200359 .00000221 00000-0 13702-3 0 09580 2 19531 098.7730 126.1593 0011594 164.7850 195.3690 14.14914263102284 NOAA-12 1 21263U 91032A 10035.84317845 .00000058 00000-0 24589-4 0 4392 2 21263 098.7698 048.9927 0012228 187.2823 172.8658 14.25614185973584 MET-3/5 1 21655U 91056A 10034.85476484 .00000051 00000-0 10000-3 0 7284 2 21655 082.5537 042.8348 0012843 327.4759 032.5555 13.17019235888129 MET-2/21 1 22782U 93055A 10034.87292447 .00000076 00000-0 55558-4 0 06873 2 22782 082.5496 358.2049 0023853 058.6303 301.7196 13.83641279829644 OKEAN-4 1 23317U 94066A 10035.78736857 .00000106 00000-0 10172-4 0 1456 2 23317 082.5417 117.4410 0021063 322.2117 037.7644 14.82762280826831 NOAA-14 1 23455U 94089A 10034.73743778 .00000027 00000-0 37772-4 0 09330 2 23455 098.8885 116.3671 0008569 253.8364 106.1864 14.13778194778644 NOAA-15 1 25338U 98030A 10034.93855721 .00000045 00000-0 37687-4 0 02558 2 25338 098.6075 024.3308 0011540 101.7288 258.5219 14.24804961609776 RESURS 1 25394U 98043A 10035.63584759 -.00000032 00000-0 37695-5 0 4236 2 25394 098.3160 060.8670 0000531 238.5215 121.5909 14.24192371601484 FENGYUN1 1 25730U 99025A 10035.65106486 -.00000012 00000-0 18476-4 0 9654 2 25730 098.7755 004.1233 0023631 280.6255 079.2241 14.08168767553035 OKEAN-0 1 25860U 99039A 10034.78724234 .00000019 00000-0 10260-4 0 09067 2 25860 097.8157 012.1425 0001514 102.8416 257.2962 14.73610760567251 NOAA-16 1 26536U 00055A 10034.91891141 -.00000142 00000-0 -51296-4 0 07336 2 26536 099.1773 049.2040 0010401 355.5608 004.5430 14.12545042483017 NOAA-17 1 27453U 02032A 10034.78795436 -.00000063 00000-0 -90526-5 0 07407 2 27453 098.4514 090.4862 0012073 163.1041 197.0546 14.24127194395714 NOAA-18 1 28654U 05018A 10034.80738103 .00000044 00000-0 49036-4 0 02231 2 28654 098.9364 341.5582 0015155 070.4292 289.8500 14.11324728242626 NOAA-19 1 33591U 09005A 10034.83727656 .00000132 00000-0 97338-4 0 04284 2 33591 098.7756 339.8864 0013558 309.6020 050.3980 14.11021702051109 HUBBLE 1 20580U 90037B 10034.26164458 .00000371 00000-0 15592-4 0 5126 2 20580 028.4698 034.1064 0003637 214.2224 145.8149 15.00886988884609 ISS 1 25544U 98067A 10036.02140206 .00016750 00000-0 11062-3 0 5173 2 25544 051.6445 189.3027 0010719 284.4187 177.1299 15.75678155642658 CO-58 1 28895U 05043F 10034.67119931 .00000030 00000-0 15744-4 0 05050 2 28895 098.0327 283.4278 0017957 346.9978 013.0763 14.59840793227508 FALCON 1 30776U 07006E 10035.67636338 .00000476 00000-0 37282-4 0 7583 2 30776 035.4325 128.6694 0000255 052.8860 307.1879 15.03445489160100 MAST 1 31126U 07012K 10034.81589486 -.00000088 00000-0 -91492-5 0 07930 2 31126 097.9589 083.6040 0093379 280.8106 078.2527 14.53549527148682 CAPE1 1 31130U 07012P 10035.56470186 .00000109 00000-0 36097-4 0 8060 2 31130 097.9548 081.9921 0101643 285.5880 073.4136 14.52130500148416 COMPASS 1 32787U 08021E 10034.19766702 .00000137 00000-0 24103-4 0 05872 2 32787 097.9109 100.7052 0015879 005.5705 354.5727 14.81746885095651 AAUSAT2 1 32788U 08021F 10034.68594279 .00000667 00000-0 90891-4 0 5803 2 32788 097.9116 101.2882 0015807 005.1360 354.9984 14.81883217 95730 DO-64 1 32789U 08021G 10034.70427279 .00000580 00000-0 79850-4 0 05987 2 32789 097.9166 101.6425 0015549 002.9906 357.1365 14.81945053095732 CO-66 1 32791U 08021J 10034.20107846 .00000056 00000-0 13897-4 0 05785 2 32791 097.9120 100.7359 0016319 003.8058 356.3313 14.81554326095615 RS-30 1 32953U 08025A 10034.75829675 .00000010 00000-0 00000-0 0 05182 2 32953 082.5027 112.6590 0019440 037.1644 323.0779 12.43003120077163 TACSAT-3 1 35001U 09028A 10034.87632398 .00003320 00000-0 86027-4 0 02226 2 35001 040.4568 294.0130 0021243 084.8456 275.4800 15.40164879040065 PHARMSAT 1 35002U 09028B 10034.88136422 .00003501 00000-0 88269-4 0 1977 2 35002 040.4703 292.5339 0024323 088.6161 271.7455 15.40835761 40079 HAWKSAT1 1 35003U 09028C 10035.83876878 .00007364 00000-0 17008-3 0 2064 2 35003 040.4620 284.5917 0022981 103.4261 256.9116 15.42415581 40251 CP6 1 35004U 09028D 10034.91512608 .00007903 00000-0 18035-3 0 02049 2 35004 040.4631 289.9263 0022522 096.8618 263.4794 15.42713698040108 AEROCUB3 1 35005U 09028E 10035.84555535 .00016759 00000-0 37003-3 0 2077 2 35005 040.4732 284.9414 0020857 101.3265 258.9915 15.43207406 40248 DRAGNSAT 1 35690U 09038B 10035.84316292 .00122123 17310-4 26817-3 0 2310 2 35690 051.6333 173.6506 0000856 063.4055 296.7013 15.97911071 30064 POLLUX 1 35693U 09038E 10035.85532384 .00080118 13754-4 20946-3 0 2262 2 35693 051.6368 175.2834 0002173 005.1054 355.0006 15.94990546 30010 CASTOR 1 35694U 09038F 10035.57724388 .00027873 00000-0 11063-3 0 1803 2 35694 051.6378 181.0562 0003010 035.9653 324.1800 15.86479234 29915 METEOR-M 1 35865U 09049A 10035.69475036 .00000176 00000-0 10000-3 0 1190 2 35865 098.7780 090.3267 0003062 040.9093 319.2260 14.21828576 19895 RS-38 1 35869U 09049E 10034.83581886 .00000176 00000-0 10000-3 0 1213 2 35869 098.7773 089.4916 0005221 036.6579 323.4899 14.21974950 19771 /EX
participants (1)
-
Ray Hoad